Time,TemperatureF,DewpointF,PressureIn,WindDirection,WindDirectionDegrees,WindSpeedMPH,WindSpeedGustMPH,Humidity,HourlyPrecipIn,Conditions,Clouds,dailyrainin,SolarRadiationWatts/m^2,SoftwareType,DateUTC
2013-03-26 00:00:00,33.7,28.5,30.24,East,80,5.0,5.0,81,0.00,RA,,0.00,0.0,WeatherDisplay:10.37,2013-03-26 00:00:00,
2013-03-26 00:05:00,33.7,28.8,30.24,SE,133,10.4,10.4,82,0.00,RA,,0.00,0.0,WeatherDisplay:10.37,2013-03-26 00:05:00,
2013-03-26 00:10:00,33.5,28.6,30.24,SE,131,8.1,8.1,82,0.00,CLR,,0.00,0.0,WeatherDisplay:10.37,2013-03-26 00:10:00,
2013-03-26 00:15:00,33.5,28.6,30.24,East,95,5.8,5.8,82,0.00,CLR,,0.00,0.0,WeatherDisplay:10.37,2013-03-26 00:15:00,
2013-03-26 00:22:00,33.4,28.5,30.24,SSE,147,5.0,5.0,82,0.00,CLR,,0.00,0.0,WeatherDisplay:10.37,2013-03-26 00:22:00,
2013-03-26 00:27:00,33.4,28.8,30.24,SE,126,5.8,5.8,83,0.00,CLR,,0.00,0.0,WeatherDisplay:10.37,2013-03-26 00:27:00,
2013-03-26 00:32:00,33.2,28.6,30.24,SE,124,4.6,4.6,83,0.00,CLR,,0.00,0.0,WeatherDisplay:10.37,2013-03-26 00:32:00,
2013-03-26 00:37:00,33.2,28.6,30.24,SE,136,4.0,4.0,83,0.00,CLR,,0.00,0.0,WeatherDisplay:10.37,2013-03-26 00:37:00,
2013-03-26 00:43:00,33.1,28.5,30.24,SSE,152,4.6,4.6,83,0.00,CLR,,0.00,0.0,WeatherDisplay:10.37,2013-03-26 00:43:00,
2013-03-26 00:48:00,33.1,28.5,30.23,East,96,5.0,5.0,83,0.00,CLR,,0.00,0.0,WeatherDisplay:10.37,2013-03-26 00:48:00,
2013-03-26 00:53:00,33.1,28.5,30.24,NE,56,4.6,4.6,83,0.00,CLR,,0.00,0.0,WeatherDisplay:10.37,2013-03-26 00:53:00,
2013-03-26 00:58:00,33.1,28.5,30.23,SE,124,6.0,6.0,83,0.00,CLR,,0.00,0.0,WeatherDisplay:10.37,2013-03-26 00:58:00,
2013-03-26 01:03:00,33.2,28.9,30.23,ESE,120,4.6,4.6,84,0.00,CLR,,0.00,0.0,WeatherDisplay:10.37,2013-03-26 01:03:00,
2013-03-26 01:08:00,33.4,29.1,30.23,SE,124,5.8,5.8,84,0.00,CLR,,0.00,0.0,WeatherDisplay:10.37,2013-03-26 01:08:00,
2013-03-26 01:14:00,33.5,29.2,30.23,ESE,114,4.6,4.6,84,0.00,CLR,,0.00,0.0,WeatherDisplay:10.37,2013-03-26 01:14:00,
2013-03-26 01:19:00,33.7,29.4,30.23,ESE,119,6.9,6.9,84,0.00,CLR,,0.00,0.0,WeatherDisplay:10.37,2013-03-26 01:19:00,
2013-03-26 01:24:00,33.8,29.5,30.23,East,80,11.5,11.5,84,0.00,CLR,,0.00,0.0,WeatherDisplay:10.37,2013-03-26 01:24:00,
2013-03-26 01:29:00,33.8,29.5,30.23,ESE,119,5.8,5.8,84,0.00,CLR,,0.00,0.0,WeatherDisplay:10.37,2013-03-26 01:29:00,
2013-03-26 01:34:00,33.8,29.5,30.23,East,97,4.6,4.6,84,0.00,CLR,,0.00,0.0,WeatherDisplay:10.37,2013-03-26 01:34:00,
2013-03-26 01:40:00,33.8,29.5,30.23,ESE,116,10.4,10.4,84,0.00,CLR,,0.00,0.0,WeatherDisplay:10.37,2013-03-26 01:40:00,
2013-03-26 01:45:00,33.7,29.7,30.23,SE,130,8.1,8.1,85,0.00,CLR,,0.00,0.0,WeatherDisplay:10.37,2013-03-26 01:45:00,
2013-03-26 01:50:00,33.7,29.7,30.23,SE,137,4.6,4.6,85,0.00,CLR,,0.00,0.0,WeatherDisplay:10.37,2013-03-26 01:50:00,
2013-03-26 01:55:00,33.5,29.5,30.23,ESE,114,5.8,5.8,85,0.00,CLR,,0.00,0.0,WeatherDisplay:10.37,2013-03-26 01:55:00,
2013-03-26 02:00:00,33.4,29.4,30.23,SE,126,10.4,10.4,85,0.00,CLR,,0.00,0.0,WeatherDisplay:10.37,2013-03-26 02:00:00,
2013-03-26 02:05:00,33.4,29.7,30.23,East,99,5.0,5.0,86,0.00,CLR,,0.00,0.0,WeatherDisplay:10.37,2013-03-26 02:05:00,
2013-03-26 02:10:00,33.4,29.7,30.23,SSE,165,3.5,3.5,86,0.00,CLR,,0.00,0.0,WeatherDisplay:10.37,2013-03-26 02:10:00,
2013-03-26 02:15:00,33.2,29.5,30.23,ESE,109,2.3,2.3,86,0.00,CLR,,0.00,0.0,WeatherDisplay:10.37,2013-03-26 02:15:00,
2013-03-26 02:21:00,32.9,29.5,30.23,ESE,117,3.5,3.5,87,0.00,CLR,,0.00,0.0,WeatherDisplay:10.37,2013-03-26 02:21:00,
2013-03-26 02:26:00,32.8,29.4,30.23,SE,126,2.3,2.3,87,0.00,CLR,,0.00,0.0,WeatherDisplay:10.37,2013-03-26 02:26:00,
2013-03-26 02:31:00,32.7,29.5,30.23,ENE,76,2.3,2.3,88,0.00,CLR,,0.00,0.0,WeatherDisplay:10.37,2013-03-26 02:31:00,
2013-03-26 02:36:00,32.7,29.8,30.23,NE,55,3.5,3.5,89,0.00,CLR,,0.00,0.0,WeatherDisplay:10.37,2013-03-26 02:36:00,
2013-03-26 02:41:00,32.7,29.8,30.23,East,86,3.5,3.5,89,0.00,CLR,,0.00,0.0,WeatherDisplay:10.37,2013-03-26 02:41:00,
2013-03-26 02:47:00,32.7,29.8,30.23,East,95,4.6,4.6,89,0.00,CLR,,0.00,0.0,WeatherDisplay:10.37,2013-03-26 02:47:00,
2013-03-26 02:52:00,32.5,29.6,30.23,ESE,104,4.6,4.6,89,0.00,CLR,,0.00,0.0,WeatherDisplay:10.37,2013-03-26 02:52:00,
2013-03-26 02:57:00,32.4,29.8,30.23,East,92,2.3,2.3,90,0.00,CLR,,0.00,0.0,WeatherDisplay:10.37,2013-03-26 02:57:00,
2013-03-26 03:02:00,32.4,29.8,30.23,East,89,3.5,3.5,90,0.00,CLR,,0.00,0.0,WeatherDisplay:10.37,2013-03-26 03:02:00,
2013-03-26 03:08:00,32.5,30.2,30.23,ESE,107,3.5,3.5,91,0.00,CLR,,0.00,0.0,WeatherDisplay:10.37,2013-03-26 03:08:00,
2013-03-26 03:13:00,32.5,30.2,30.23,East,92,3.5,3.5,91,0.00,CLR,,0.00,0.0,WeatherDisplay:10.37,2013-03-26 03:13:00,
2013-03-26 03:18:00,32.5,30.2,30.23,East,90,3.5,3.5,91,0.00,CLR,,0.00,0.0,WeatherDisplay:10.37,2013-03-26 03:18:00,
2013-03-26 03:23:00,32.7,30.6,30.23,East,99,4.6,4.6,92,0.00,CLR,,0.00,0.0,WeatherDisplay:10.37,2013-03-26 03:23:00,
2013-03-26 03:28:00,32.7,30.6,30.23,East,92,3.5,3.5,92,0.00,CLR,,0.00,0.0,WeatherDisplay:10.37,2013-03-26 03:28:00,
2013-03-26 03:33:00,32.7,30.6,30.23,ENE,73,3.5,3.5,92,0.00,CLR,,0.00,0.0,WeatherDisplay:10.37,2013-03-26 03:33:00,
2013-03-26 03:39:00,32.7,30.6,30.23,East,80,4.6,4.6,92,0.00,CLR,,0.00,0.0,WeatherDisplay:10.37,2013-03-26 03:39:00,
2013-03-26 03:44:00,32.7,30.6,30.23,ENE,75,4.6,4.6,92,0.00,CLR,,0.00,0.0,WeatherDisplay:10.37,2013-03-26 03:44:00,
2013-03-26 03:49:00,32.7,30.6,30.23,ENE,73,4.6,4.6,92,0.00,CLR,,0.00,0.0,WeatherDisplay:10.37,2013-03-26 03:49:00,
2013-03-26 03:54:00,32.7,30.9,30.22,ESE,106,4.6,4.6,93,0.00,CLR,,0.00,0.0,WeatherDisplay:10.37,2013-03-26 03:54:00,
2013-03-26 03:59:00,32.8,31.0,30.22,East,85,5.8,5.8,93,0.00,CLR,,0.00,0.0,WeatherDisplay:10.37,2013-03-26 03:59:00,
2013-03-26 04:00:00,32.8,31.0,30.22,East,83,5.8,5.8,93,0.00,CLR,,0.00,0.0,WeatherDisplay:10.37,2013-03-26 04:00:00,
2013-03-26 04:03:00,32.8,31.0,30.22,East,83,3.5,3.5,93,0.00,CLR,,0.00,0.0,WeatherDisplay:10.37,2013-03-26 04:03:00,
2013-03-26 04:08:00,32.9,31.1,30.22,East,88,6.0,6.0,93,0.00,CLR,,0.00,0.0,WeatherDisplay:10.37,2013-03-26 04:08:00,
2013-03-26 04:13:00,32.9,31.4,30.22,East,80,5.8,5.8,94,0.00,CLR,,0.00,0.0,WeatherDisplay:10.37,2013-03-26 04:13:00,
2013-03-26 04:18:00,32.9,31.4,30.22,East,99,3.5,3.5,94,0.00,CLR,,0.00,0.0,WeatherDisplay:10.37,2013-03-26 04:18:00,
2013-03-26 04:24:00,33.1,31.6,30.22,East,95,2.3,2.3,94,0.00,CLR,,0.00,0.0,WeatherDisplay:10.37,2013-03-26 04:24:00,
2013-03-26 04:29:00,33.1,31.8,30.22,NE,55,5.8,5.8,95,0.00,CLR,,0.00,0.0,WeatherDisplay:10.37,2013-03-26 04:29:00,
2013-03-26 04:34:00,33.1,31.8,30.22,ENE,76,4.6,4.6,95,0.00,CLR,,0.00,0.0,WeatherDisplay:10.37,2013-03-26 04:34:00,
2013-03-26 04:39:00,33.1,31.8,30.22,East,80,4.6,4.6,95,0.00,CLR,,0.00,0.0,WeatherDisplay:10.37,2013-03-26 04:39:00,
2013-03-26 04:45:00,33.1,32.1,30.22,East,87,1.0,6.0,96,0.00,CLR,,0.00,0.0,WeatherDisplay:10.37,2013-03-26 04:45:00,
2013-03-26 04:50:00,33.1,32.1,30.22,ENE,64,2.3,2.3,96,0.00,CLR,,0.00,0.0,WeatherDisplay:10.37,2013-03-26 04:50:00,
2013-03-26 04:55:00,33.1,32.1,30.22,ESE,114,3.5,3.5,96,0.00,CLR,,0.00,0.0,WeatherDisplay:10.37,2013-03-26 04:55:00,
2013-03-26 05:00:00,33.1,32.1,30.22,ENE,75,2.3,2.3,96,0.00,CLR,,0.00,0.0,WeatherDisplay:10.37,2013-03-26 05:00:00,
2013-03-26 05:05:00,33.1,32.1,30.22,East,86,2.3,2.3,96,0.00,CLR,,0.00,0.0,WeatherDisplay:10.37,2013-03-26 05:05:00,
2013-03-26 05:10:00,33.1,32.1,30.22,ENE,62,4.6,4.6,96,0.00,CLR,,0.00,0.0,WeatherDisplay:10.37,2013-03-26 05:10:00,
2013-03-26 05:15:00,33.1,32.3,30.22,ENE,61,2.3,2.3,97,0.00,CLR,,0.00,0.0,WeatherDisplay:10.37,2013-03-26 05:15:00,
2013-03-26 05:21:00,33.1,32.3,30.22,ENE,64,3.5,3.5,97,0.00,CLR,,0.00,0.0,WeatherDisplay:10.37,2013-03-26 05:21:00,
2013-03-26 05:26:00,32.9,32.1,30.22,ENE,66,1.2,1.2,97,0.00,CLR,,0.00,0.0,WeatherDisplay:10.37,2013-03-26 05:26:00,
2013-03-26 05:31:00,32.8,32.0,30.22,NE,54,3.5,3.5,97,0.00,CLR,,0.00,0.0,WeatherDisplay:10.37,2013-03-26 05:31:00,
2013-03-26 05:36:00,32.7,31.9,30.22,ESE,103,0.0,0.0,97,0.00,CLR,,0.00,0.0,WeatherDisplay:10.37,2013-03-26 05:36:00,
2013-03-26 05:41:00,32.7,31.9,30.22,East,99,2.3,2.3,97,0.00,CLR,,0.00,0.0,WeatherDisplay:10.37,2013-03-26 05:41:00,
2013-03-26 05:47:00,32.8,32.3,30.22,NE,56,3.5,3.5,98,0.00,CLR,,0.00,0.0,WeatherDisplay:10.37,2013-03-26 05:47:00,
2013-03-26 05:52:00,32.9,32.4,30.22,ENE,73,3.5,3.5,98,0.00,CLR,,0.00,0.0,WeatherDisplay:10.37,2013-03-26 05:52:00,
2013-03-26 05:57:00,33.1,32.6,30.22,East,80,3.5,3.5,98,0.00,CLR,,0.00,0.0,WeatherDisplay:10.37,2013-03-26 05:57:00,
2013-03-26 06:02:00,33.1,32.6,30.22,East,92,5.8,5.8,98,0.00,OVC,,0.00,0.0,WeatherDisplay:10.37,2013-03-26 06:02:00,
2013-03-26 06:08:00,33.1,32.6,30.22,ENE,64,4.6,4.6,98,0.00,OVC,,0.00,5.0,WeatherDisplay:10.37,2013-03-26 06:08:00,
2013-03-26 06:13:00,32.9,32.4,30.22,East,85,4.6,4.6,98,0.00,OVC,,0.00,5.0,WeatherDisplay:10.37,2013-03-26 06:13:00,
2013-03-26 06:18:00,32.9,32.4,30.22,East,96,3.5,3.5,98,0.00,CLR,,0.00,9.0,WeatherDisplay:10.37,2013-03-26 06:18:00,
2013-03-26 06:23:00,32.9,32.7,30.22,East,95,3.5,3.5,99,0.00,FEW,,0.00,12.0,WeatherDisplay:10.37,2013-03-26 06:23:00,
2013-03-26 06:28:00,32.9,32.7,30.22,ESE,117,6.0,6.0,99,0.00,FEW,,0.00,18.0,WeatherDisplay:10.37,2013-03-26 06:28:00,
2013-03-26 06:33:00,33.1,32.9,30.22,East,99,3.5,3.5,99,0.00,SCT,,0.00,21.0,WeatherDisplay:10.37,2013-03-26 06:33:00,
2013-03-26 06:38:00,33.2,33.0,30.22,East,95,4.6,4.6,99,0.00,FEW,,0.00,42.0,WeatherDisplay:10.37,2013-03-26 06:38:00,
2013-03-26 06:43:00,33.2,33.0,30.22,East,95,5.8,5.8,99,0.00,CLR,,0.00,55.0,WeatherDisplay:10.37,2013-03-26 06:43:00,
2013-03-26 06:48:00,33.4,33.1,30.21,ENE,59,5.8,5.8,99,0.00,CLR,,0.00,56.0,WeatherDisplay:10.37,2013-03-26 06:48:00,
2013-03-26 06:54:00,33.4,33.1,30.21,ENE,62,2.3,2.3,99,0.00,FEW,,0.00,55.0,WeatherDisplay:10.37,2013-03-26 06:54:00,
2013-03-26 06:59:00,33.4,33.1,30.21,East,79,3.5,3.5,99,0.00,FEW,,0.00,63.0,WeatherDisplay:10.37,2013-03-26 06:59:00,
2013-03-26 07:04:00,33.2,33.0,30.21,East,80,3.5,3.5,99,0.00,SCT,,0.00,55.0,WeatherDisplay:10.37,2013-03-26 07:04:00,
2013-03-26 07:10:00,33.2,33.0,30.21,East,86,3.5,3.5,99,0.00,CLR,,0.00,95.0,WeatherDisplay:10.37,2013-03-26 07:10:00,
2013-03-26 07:15:00,33.2,33.0,30.22,ENE,65,3.5,3.5,99,0.00,CLR,,0.00,135.0,WeatherDisplay:10.37,2013-03-26 07:15:00,
2013-03-26 07:20:00,33.5,33.2,30.22,East,89,4.6,4.6,99,0.00,CLR,,0.00,194.0,WeatherDisplay:10.37,2013-03-26 07:20:00,
2013-03-26 07:25:00,33.8,33.8,30.22,East,88,3.5,3.5,100,0.00,FEW,,0.00,95.0,WeatherDisplay:10.37,2013-03-26 07:25:00,
2013-03-26 07:30:00,33.8,33.5,30.22,ESE,113,3.5,3.5,99,0.00,BKN,,0.00,55.0,WeatherDisplay:10.37,2013-03-26 07:30:00,
2013-03-26 07:35:00,33.7,33.4,30.22,East,99,4.6,4.6,99,0.00,BKN,,0.00,70.0,WeatherDisplay:10.37,2013-03-26 07:35:00,
2013-03-26 07:40:00,33.7,33.4,30.22,East,95,3.5,3.5,99,0.00,SCT,,0.00,95.0,WeatherDisplay:10.37,2013-03-26 07:40:00,
2013-03-26 07:45:00,33.8,33.5,30.22,ESE,103,5.8,5.8,99,0.00,SCT,,0.00,114.0,WeatherDisplay:10.37,2013-03-26 07:45:00,
2013-03-26 07:51:00,34.1,33.8,30.22,East,100,4.6,4.6,99,0.00,SCT,,0.00,121.0,WeatherDisplay:10.37,2013-03-26 07:51:00,
2013-03-26 07:56:00,34.3,33.8,30.22,East,86,5.0,5.0,98,0.00,SCT,,0.00,135.0,WeatherDisplay:10.37,2013-03-26 07:56:00,
2013-03-26 08:01:00,34.6,34.1,30.22,NE,55,7.0,7.0,98,0.00,SCT,,0.00,137.0,WeatherDisplay:10.37,2013-03-26 08:01:00,
2013-03-26 08:06:00,34.6,33.6,30.22,ENE,69,8.1,8.1,96,0.00,SCT,,0.00,141.0,WeatherDisplay:10.37,2013-03-26 08:06:00,
2013-03-26 08:11:00,34.6,33.3,30.22,ENE,78,10.4,10.4,95,0.00,SCT,,0.00,132.0,WeatherDisplay:10.37,2013-03-26 08:11:00,
2013-03-26 08:16:00,34.7,32.9,30.22,East,99,6.9,6.9,93,0.00,SCT,,0.00,151.0,WeatherDisplay:10.37,2013-03-26 08:16:00,
2013-03-26 08:21:00,35.0,33.2,30.22,East,93,3.5,3.5,93,0.00,SCT,,0.00,185.0,WeatherDisplay:10.37,2013-03-26 08:21:00,
2013-03-26 08:27:00,35.5,33.4,30.22,ESE,102,5.8,5.8,92,0.00,FEW,,0.00,213.0,WeatherDisplay:10.37,2013-03-26 08:27:00,
2013-03-26 08:32:00,35.8,33.4,30.22,SE,128,6.0,6.0,91,0.00,CLR,,0.00,252.0,WeatherDisplay:10.37,2013-03-26 08:32:00,
2013-03-26 08:37:00,36.0,33.4,30.21,East,92,6.9,6.9,90,0.00,BKN,,0.00,107.0,WeatherDisplay:10.37,2013-03-26 08:37:00,
2013-03-26 08:42:00,35.9,33.0,30.22,ENE,71,4.6,5.0,89,0.00,SCT,,0.00,146.0,WeatherDisplay:10.37,2013-03-26 08:42:00,
2013-03-26 08:47:00,35.8,32.9,30.22,ENE,64,8.1,8.1,89,0.00,SCT,,0.00,162.0,WeatherDisplay:10.37,2013-03-26 08:47:00,
2013-03-26 08:52:00,35.8,32.6,30.22,ENE,71,10.4,10.4,88,0.00,BKN,,0.00,148.0,WeatherDisplay:10.37,2013-03-26 08:52:00,
2013-03-26 08:57:00,35.8,32.6,30.21,East,80,5.8,5.8,88,0.00,BKN,,0.00,148.0,WeatherDisplay:10.37,2013-03-26 08:57:00,
2013-03-26 09:03:00,35.8,32.6,30.21,SE,141,5.8,5.8,88,0.00,BKN,,0.00,169.0,WeatherDisplay:10.37,2013-03-26 09:03:00,
2013-03-26 09:08:00,36.0,32.8,30.21,ESE,104,8.1,8.1,88,0.00,FEW,,0.00,262.0,WeatherDisplay:10.37,2013-03-26 09:08:00,
2013-03-26 09:13:00,36.8,33.9,30.21,SSE,147,11.5,11.5,89,0.00,CLR,,0.00,359.0,WeatherDisplay:10.37,2013-03-26 09:13:00,
2013-03-26 09:18:00,36.8,33.0,30.21,ESE,123,6.0,6.0,86,0.00,BKN,,0.00,188.0,WeatherDisplay:10.37,2013-03-26 09:18:00,
2013-03-26 09:23:00,36.3,31.9,30.21,SE,140,11.5,11.5,84,0.00,BKN,,0.00,222.0,WeatherDisplay:10.37,2013-03-26 09:23:00,
2013-03-26 09:28:00,36.5,32.1,30.21,East,83,10.4,10.4,84,0.00,SCT,,0.00,229.0,WeatherDisplay:10.37,2013-03-26 09:28:00,
2013-03-26 09:34:00,36.9,32.2,30.21,East,95,5.8,5.8,83,0.00,CLR,,0.00,387.0,WeatherDisplay:10.37,2013-03-26 09:34:00,
2013-03-26 09:39:00,37.6,32.6,30.21,SSE,148,12.7,12.7,82,0.00,FEW,,0.00,350.0,WeatherDisplay:10.37,2013-03-26 09:39:00,
2013-03-26 09:44:00,37.6,32.3,30.21,ESE,116,5.8,5.8,81,0.00,SCT,,0.00,246.0,WeatherDisplay:10.37,2013-03-26 09:44:00,
2013-03-26 09:49:00,38.0,32.4,30.21,SE,138,11.5,11.5,80,0.00,FEW,,0.00,324.0,WeatherDisplay:10.37,2013-03-26 09:49:00,
2013-03-26 09:54:00,37.8,31.9,30.21,ESE,112,5.8,5.8,79,0.00,SCT,,0.00,285.0,WeatherDisplay:10.37,2013-03-26 09:54:00,
2013-03-26 09:59:00,37.6,31.7,30.20,ESE,119,13.8,13.8,79,0.01,RA,,0.01,289.0,WeatherDisplay:10.37,2013-03-26 09:59:00,
2013-03-26 10:05:00,37.9,32.0,30.20,ESE,120,11.5,11.5,79,0.01,RA,,0.01,297.0,WeatherDisplay:10.37,2013-03-26 10:05:00,
2013-03-26 10:10:00,38.5,32.6,30.20,ESE,107,10.4,10.4,79,0.01,CLR,,0.01,436.0,WeatherDisplay:10.37,2013-03-26 10:10:00,
2013-03-26 10:15:00,38.8,32.5,30.20,ESE,109,11.5,11.5,78,0.01,SCT,,0.01,331.0,WeatherDisplay:10.37,2013-03-26 10:15:00,
2013-03-26 10:20:00,39.3,33.0,30.20,East,90,10.4,10.4,78,0.01,SCT,,0.01,331.0,WeatherDisplay:10.37,2013-03-26 10:20:00,
2013-03-26 10:25:00,39.8,32.2,30.20,ESE,107,4.6,4.6,74,0.01,CLR,,0.01,596.0,WeatherDisplay:10.37,2013-03-26 10:25:00,
2013-03-26 10:30:00,40.1,32.5,30.19,ESE,109,6.9,6.9,74,0.01,CLR,,0.01,616.0,WeatherDisplay:10.37,2013-03-26 10:30:00,
2013-03-26 10:35:00,40.6,32.3,30.19,ESE,106,11.5,11.5,72,0.01,CLR,,0.01,642.0,WeatherDisplay:10.37,2013-03-26 10:35:00,
2013-03-26 10:40:00,41.1,32.1,30.19,East,89,9.2,9.2,70,0.01,CLR,,0.01,656.0,WeatherDisplay:10.37,2013-03-26 10:40:00,
2013-03-26 10:46:00,40.9,31.5,30.19,ESE,113,9.2,9.2,69,0.01,CLR,,0.01,779.0,WeatherDisplay:10.37,2013-03-26 10:46:00,
2013-03-26 10:51:00,41.3,31.5,30.19,SE,124,15.0,15.0,68,0.01,CLR,,0.01,781.0,WeatherDisplay:10.37,2013-03-26 10:51:00,
2013-03-26 10:56:00,41.1,30.6,30.19,SE,136,11.0,11.0,66,0.01,SCT,,0.01,334.0,WeatherDisplay:10.37,2013-03-26 10:56:00,
2013-03-26 11:01:00,41.2,32.5,30.19,NW,311,11.5,11.5,71,0.00,FEW,,0.01,456.0,WeatherDisplay:10.37,2013-03-26 11:01:00,
2013-03-26 11:06:00,41.1,32.1,30.19,ENE,75,5.8,5.8,70,0.00,BKN,,0.01,216.0,WeatherDisplay:10.37,2013-03-26 11:06:00,
2013-03-26 11:11:00,40.1,31.4,30.19,NE,55,11.0,11.0,71,0.00,OVC,,0.01,137.0,WeatherDisplay:10.37,2013-03-26 11:11:00,
2013-03-26 11:17:00,39.2,30.9,30.20,East,99,10.4,10.4,72,0.00,OVC,,0.01,208.0,WeatherDisplay:10.37,2013-03-26 11:17:00,
2013-03-26 11:22:00,39.2,31.3,30.19,SE,131,11.5,11.5,73,0.00,OVC,,0.01,199.0,WeatherDisplay:10.37,2013-03-26 11:22:00,
2013-03-26 11:27:00,39.1,30.8,30.19,ESE,117,11.5,11.5,72,0.00,OVC,,0.01,106.0,WeatherDisplay:10.37,2013-03-26 11:27:00,
2013-03-26 11:32:00,38.5,29.9,30.19,SE,136,12.7,12.7,71,0.00,OVC,,0.01,88.0,WeatherDisplay:10.37,2013-03-26 11:32:00,
2013-03-26 11:37:00,37.9,30.4,30.19,SE,124,12.7,12.7,74,0.00,OVC,,0.01,93.0,WeatherDisplay:10.37,2013-03-26 11:37:00,
2013-03-26 11:42:00,37.8,30.9,30.19,NE,54,10.4,10.4,76,0.00,OVC,,0.01,95.0,WeatherDisplay:10.37,2013-03-26 11:42:00,
2013-03-26 11:47:00,37.8,31.2,30.19,ESE,117,16.1,16.1,77,0.00,OVC,,0.01,81.0,WeatherDisplay:10.37,2013-03-26 11:47:00,
2013-03-26 11:52:00,37.5,31.6,30.20,ESE,103,11.5,11.5,79,0.00,OVC,,0.01,118.0,WeatherDisplay:10.37,2013-03-26 11:52:00,
2013-03-26 11:58:00,37.0,32.0,30.19,ESE,106,8.1,8.1,82,0.00,OVC,,0.01,178.0,WeatherDisplay:10.37,2013-03-26 11:58:00,
2013-03-26 12:03:00,37.0,31.7,30.19,SE,136,8.1,8.1,81,0.00,BKN,,0.01,241.0,WeatherDisplay:10.37,2013-03-26 12:03:00,
2013-03-26 12:08:00,37.5,32.5,30.19,ESE,104,8.1,8.1,82,0.00,SCT,,0.01,320.0,WeatherDisplay:10.37,2013-03-26 12:08:00,
2013-03-26 12:13:00,37.9,32.6,30.19,East,79,9.2,9.2,81,0.00,SCT,,0.01,394.0,WeatherDisplay:10.37,2013-03-26 12:13:00,
2013-03-26 12:18:00,38.3,33.3,30.19,SE,137,6.9,6.9,82,0.00,SCT,,0.01,477.0,WeatherDisplay:10.37,2013-03-26 12:18:00,
2013-03-26 12:23:00,38.8,33.2,30.19,SE,127,8.0,8.0,80,0.00,BKN,,0.01,264.0,WeatherDisplay:10.37,2013-03-26 12:23:00,
2013-03-26 12:28:00,38.6,33.3,30.18,ESE,102,8.1,8.1,81,0.00,BKN,,0.01,255.0,WeatherDisplay:10.37,2013-03-26 12:28:00,
2013-03-26 12:33:00,38.5,33.2,30.18,East,79,8.1,8.1,81,0.00,BKN,,0.01,283.0,WeatherDisplay:10.37,2013-03-26 12:33:00,
2013-03-26 12:39:00,38.5,33.5,30.18,East,82,8.1,8.1,82,0.00,BKN,,0.01,264.0,WeatherDisplay:10.37,2013-03-26 12:39:00,
2013-03-26 12:44:00,38.3,32.7,30.18,East,88,11.5,11.5,80,0.00,SCT,,0.01,354.0,WeatherDisplay:10.37,2013-03-26 12:44:00,
2013-03-26 12:49:00,38.9,33.3,30.18,ESE,121,17.3,17.3,80,0.00,SCT,,0.01,384.0,WeatherDisplay:10.37,2013-03-26 12:49:00,
2013-03-26 12:54:00,39.3,33.3,30.18,ESE,120,8.1,8.1,79,0.00,FEW,,0.01,473.0,WeatherDisplay:10.37,2013-03-26 12:54:00,
2013-03-26 12:59:00,40.2,33.9,30.18,ESE,120,11.0,11.0,78,0.01,RA,,0.02,375.0,WeatherDisplay:10.37,2013-03-26 12:59:00,
2013-03-26 13:05:00,39.6,33.0,30.17,ESE,107,12.7,12.7,77,0.01,RA,,0.02,280.0,WeatherDisplay:10.37,2013-03-26 13:05:00,
2013-03-26 13:10:00,39.1,32.5,30.18,SE,130,17.3,17.3,77,0.01,BKN,,0.02,253.0,WeatherDisplay:10.37,2013-03-26 13:10:00,
2013-03-26 13:15:00,38.8,32.5,30.18,East,97,12.7,12.7,78,0.01,BKN,,0.02,271.0,WeatherDisplay:10.37,2013-03-26 13:15:00,
2013-03-26 13:20:00,38.9,32.9,30.18,SE,124,13.8,13.8,79,0.01,SCT,,0.02,352.0,WeatherDisplay:10.37,2013-03-26 13:20:00,
2013-03-26 13:25:00,39.1,33.1,30.18,SE,124,11.5,11.5,79,0.01,SCT,,0.02,164.0,WeatherDisplay:10.37,2013-03-26 13:25:00,
2013-03-26 13:30:00,38.6,33.0,30.18,ESE,120,8.1,8.1,80,0.01,OVC,,0.02,100.0,WeatherDisplay:10.37,2013-03-26 13:30:00,
2013-03-26 13:35:00,38.2,32.9,30.18,ENE,58,11.5,11.5,81,0.01,OVC,,0.02,179.0,WeatherDisplay:10.37,2013-03-26 13:35:00,
2013-03-26 13:40:00,38.2,33.2,30.17,SE,137,6.9,6.9,82,0.01,BKN,,0.02,280.0,WeatherDisplay:10.37,2013-03-26 13:40:00,
2013-03-26 13:45:00,39.2,33.5,30.17,South,178,8.1,8.1,80,0.01,SCT,,0.02,294.0,WeatherDisplay:10.37,2013-03-26 13:45:00,
2013-03-26 13:50:00,40.6,33.3,30.17,ENE,58,12.7,12.7,75,0.01,CLR,,0.02,700.0,WeatherDisplay:10.37,2013-03-26 13:50:00,
2013-03-26 13:56:00,41.8,33.4,30.17,ESE,123,17.3,17.3,72,0.01,SCT,,0.02,341.0,WeatherDisplay:10.37,2013-03-26 13:56:00,
2013-03-26 14:01:00,40.5,32.2,30.16,ESE,107,12.0,12.0,72,0.00,SCT,,0.02,278.0,WeatherDisplay:10.37,2013-03-26 14:01:00,
2013-03-26 14:06:00,39.9,32.3,30.16,ESE,104,11.5,11.5,74,0.00,BKN,,0.02,185.0,WeatherDisplay:10.37,2013-03-26 14:06:00,
2013-03-26 14:11:00,39.6,32.0,30.16,ENE,73,9.2,9.2,74,0.00,BKN,,0.02,197.0,WeatherDisplay:10.37,2013-03-26 14:11:00,
2013-03-26 14:16:00,39.1,31.2,30.16,East,88,11.5,11.5,73,0.00,BKN,,0.02,218.0,WeatherDisplay:10.37,2013-03-26 14:16:00,
2013-03-26 14:21:00,38.9,31.6,30.16,East,100,10.4,10.4,75,0.00,OVC,,0.02,153.0,WeatherDisplay:10.37,2013-03-26 14:21:00,
2013-03-26 14:26:00,38.6,32.3,30.17,ENE,75,16.1,16.1,78,0.00,BKN,,0.02,211.0,WeatherDisplay:10.37,2013-03-26 14:26:00,
2013-03-26 14:32:00,38.6,33.0,30.17,ESE,102,10.4,10.4,80,0.00,BKN,,0.02,218.0,WeatherDisplay:10.37,2013-03-26 14:32:00,
2013-03-26 14:37:00,38.8,33.2,30.17,East,92,12.7,12.7,80,0.00,BKN,,0.02,220.0,WeatherDisplay:10.37,2013-03-26 14:37:00,
2013-03-26 14:42:00,38.6,33.0,30.17,ESE,110,11.5,11.5,80,0.00,BKN,,0.02,213.0,WeatherDisplay:10.37,2013-03-26 14:42:00,
2013-03-26 14:47:00,38.8,32.8,30.17,SSE,147,6.0,6.0,79,0.00,BKN,,0.02,174.0,WeatherDisplay:10.37,2013-03-26 14:47:00,
2013-03-26 14:52:00,38.9,32.3,30.16,SSE,154,11.0,11.0,77,0.00,BKN,,0.02,181.0,WeatherDisplay:10.37,2013-03-26 14:52:00,
2013-03-26 14:58:00,38.9,32.9,30.16,ESE,102,12.7,12.7,79,0.00,OVC,,0.02,157.0,WeatherDisplay:10.37,2013-03-26 14:58:00,
2013-03-26 15:03:00,38.8,33.2,30.17,SE,124,11.5,11.5,80,0.00,OVC,,0.02,148.0,WeatherDisplay:10.37,2013-03-26 15:03:00,
2013-03-26 15:08:00,38.6,33.6,30.16,SE,130,9.2,9.2,82,0.00,BKN,,0.02,171.0,WeatherDisplay:10.37,2013-03-26 15:08:00,
2013-03-26 15:13:00,38.3,33.3,30.17,ESE,119,11.5,11.5,82,0.00,BKN,,0.02,162.0,WeatherDisplay:10.37,2013-03-26 15:13:00,
2013-03-26 15:18:00,38.2,33.5,30.17,SE,130,11.5,11.5,83,0.00,SCT,,0.02,246.0,WeatherDisplay:10.37,2013-03-26 15:18:00,
2013-03-26 15:23:00,38.9,34.2,30.16,SE,131,10.4,10.4,83,0.00,CLR,,0.02,507.0,WeatherDisplay:10.37,2013-03-26 15:23:00,
2013-03-26 15:28:00,39.6,34.2,30.16,SE,131,13.8,13.8,81,0.00,CLR,,0.02,542.0,WeatherDisplay:10.37,2013-03-26 15:28:00,
2013-03-26 15:34:00,39.6,33.3,30.16,SE,136,11.5,11.5,78,0.00,CLR,,0.02,466.0,WeatherDisplay:10.37,2013-03-26 15:34:00,
2013-03-26 15:39:00,39.6,33.0,30.16,ESE,123,11.5,11.5,77,0.00,CLR,,0.02,466.0,WeatherDisplay:10.37,2013-03-26 15:39:00,
2013-03-26 15:44:00,39.8,32.5,30.16,SE,137,13.8,13.8,75,0.00,FEW,,0.02,333.0,WeatherDisplay:10.37,2013-03-26 15:44:00,
2013-03-26 15:49:00,39.5,32.9,30.16,NE,49,11.5,11.5,77,0.00,OVC,,0.02,55.0,WeatherDisplay:10.37,2013-03-26 15:49:00,
2013-03-26 15:55:00,38.8,33.2,30.16,SE,144,11.5,11.5,80,0.00,OVC,,0.02,88.0,WeatherDisplay:10.37,2013-03-26 15:55:00,
2013-03-26 16:00:00,37.8,32.8,30.16,ESE,110,11.5,11.5,82,0.00,OVC,,0.02,77.0,WeatherDisplay:10.37,2013-03-26 16:00:00,
2013-03-26 16:05:00,36.9,32.2,30.16,ESE,107,11.5,11.5,83,0.00,OVC,,0.02,107.0,WeatherDisplay:10.37,2013-03-26 16:05:00,
2013-03-26 16:10:00,37.0,32.0,30.16,SSE,160,12.7,12.7,82,0.00,CLR,,0.02,413.0,WeatherDisplay:10.37,2013-03-26 16:10:00,
2013-03-26 16:15:00,37.8,31.9,30.16,SE,134,11.5,11.5,79,0.01,RA,,0.03,440.0,WeatherDisplay:10.37,2013-03-26 16:15:00,
2013-03-26 16:21:00,38.8,32.2,30.15,SSE,164,17.3,17.3,77,0.01,RA,,0.03,450.0,WeatherDisplay:10.37,2013-03-26 16:21:00,
2013-03-26 16:26:00,38.8,31.6,30.15,ESE,110,12.7,12.7,75,0.01,SCT,,0.03,179.0,WeatherDisplay:10.37,2013-03-26 16:26:00,
2013-03-26 16:31:00,38.8,31.6,30.15,SE,136,15.0,15.0,75,0.01,SCT,,0.03,135.0,WeatherDisplay:10.37,2013-03-26 16:31:00,
2013-03-26 16:37:00,38.6,31.4,30.15,East,85,8.1,8.1,75,0.01,SCT,,0.03,132.0,WeatherDisplay:10.37,2013-03-26 16:37:00,
2013-03-26 16:42:00,38.5,30.9,30.15,SE,137,6.9,6.9,74,0.01,FEW,,0.03,190.0,WeatherDisplay:10.37,2013-03-26 16:42:00,
2013-03-26 16:47:00,38.2,30.6,30.15,SE,124,10.0,10.0,74,0.01,SCT,,0.03,118.0,WeatherDisplay:10.37,2013-03-26 16:47:00,
2013-03-26 16:52:00,37.9,30.4,30.15,ENE,66,13.8,13.8,74,0.01,SCT,,0.03,153.0,WeatherDisplay:10.37,2013-03-26 16:52:00,
2013-03-26 16:57:00,38.2,31.3,30.15,ENE,68,11.5,11.5,76,0.01,CLR,,0.03,301.0,WeatherDisplay:10.37,2013-03-26 16:57:00,
2013-03-26 17:03:00,38.3,31.1,30.15,North,0,8.1,8.1,75,0.01,BKN,,0.03,69.0,WeatherDisplay:10.37,2013-03-26 17:03:00,
2013-03-26 17:08:00,37.9,30.7,30.15,East,95,19.6,19.6,75,0.01,BKN,,0.03,62.0,WeatherDisplay:10.37,2013-03-26 17:08:00,
2013-03-26 17:13:00,37.5,30.6,30.16,East,95,11.5,11.5,76,0.01,BKN,,0.03,72.0,WeatherDisplay:10.37,2013-03-26 17:13:00,
2013-03-26 17:18:00,37.2,30.7,30.15,ENE,68,10.4,10.4,77,0.00,SCT,,0.03,81.0,WeatherDisplay:10.37,2013-03-26 17:18:00,
2013-03-26 17:23:00,37.0,30.5,30.16,SE,124,6.9,6.9,77,0.00,SCT,,0.03,65.0,WeatherDisplay:10.37,2013-03-26 17:23:00,
2013-03-26 17:28:00,36.9,30.0,30.16,ESE,112,11.5,11.5,76,0.00,BKN,,0.03,58.0,WeatherDisplay:10.37,2013-03-26 17:28:00,
2013-03-26 17:34:00,36.6,30.1,30.16,East,90,14.0,14.0,77,0.00,BKN,,0.03,39.0,WeatherDisplay:10.37,2013-03-26 17:34:00,
2013-03-26 17:39:00,36.5,30.0,30.16,ESE,114,11.5,11.5,77,0.00,BKN,,0.03,39.0,WeatherDisplay:10.37,2013-03-26 17:39:00,
2013-03-26 17:44:00,36.3,29.8,30.16,East,90,5.8,5.8,77,0.00,BKN,,0.03,40.0,WeatherDisplay:10.37,2013-03-26 17:44:00,
2013-03-26 17:49:00,36.2,30.0,30.16,East,86,10.4,10.4,78,0.00,SCT,,0.03,49.0,WeatherDisplay:10.37,2013-03-26 17:49:00,
2013-03-26 17:54:00,36.2,30.3,30.16,ESE,103,11.5,11.5,79,0.00,FEW,,0.03,55.0,WeatherDisplay:10.37,2013-03-26 17:54:00,
2013-03-26 17:59:00,36.3,30.1,30.16,ESE,109,10.4,10.4,78,0.00,FEW,,0.03,44.0,WeatherDisplay:10.37,2013-03-26 17:59:00,
2013-03-26 18:04:00,36.5,30.0,30.16,SE,124,13.8,13.8,77,0.00,SCT,,0.03,35.0,WeatherDisplay:10.37,2013-03-26 18:04:00,
2013-03-26 18:09:00,36.5,30.0,30.15,East,79,8.1,8.1,77,0.00,FEW,,0.03,33.0,WeatherDisplay:10.37,2013-03-26 18:09:00,
2013-03-26 18:15:00,36.5,30.3,30.15,East,99,5.0,16.0,78,0.00,CLR,,0.03,28.0,WeatherDisplay:10.37,2013-03-26 18:15:00,
2013-03-26 18:20:00,36.5,30.6,30.15,East,93,10.4,10.4,79,0.00,CLR,,0.03,21.0,WeatherDisplay:10.37,2013-03-26 18:20:00,
2013-03-26 18:25:00,36.3,30.4,30.15,East,83,10.4,10.4,79,0.00,CLR,,0.03,19.0,WeatherDisplay:10.37,2013-03-26 18:25:00,
2013-03-26 18:30:00,36.2,30.3,30.16,East,100,9.0,17.0,79,0.00,CLR,,0.03,14.0,WeatherDisplay:10.37,2013-03-26 18:30:00,
2013-03-26 18:35:00,36.2,30.6,30.16,ENE,68,11.5,11.5,80,0.00,OVC,,0.03,7.0,WeatherDisplay:10.37,2013-03-26 18:35:00,
2013-03-26 18:40:00,36.0,30.4,30.16,ENE,65,10.4,10.4,80,0.00,OVC,,0.03,5.0,WeatherDisplay:10.37,2013-03-26 18:40:00,
2013-03-26 18:45:00,35.9,30.3,30.16,East,92,12.7,12.7,80,0.00,OVC,,0.03,5.0,WeatherDisplay:10.37,2013-03-26 18:45:00,
2013-03-26 18:50:00,35.9,30.3,30.16,ENE,76,8.1,8.1,80,0.00,OVC,,0.03,5.0,WeatherDisplay:10.37,2013-03-26 18:50:00,
2013-03-26 18:55:00,35.8,30.2,30.16,East,90,8.1,8.1,80,0.00,OVC,,0.03,0.0,WeatherDisplay:10.37,2013-03-26 18:55:00,
2013-03-26 19:01:00,35.6,30.0,30.16,ESE,117,8.1,8.1,80,0.00,CLR,,0.03,0.0,WeatherDisplay:10.37,2013-03-26 19:01:00,
2013-03-26 19:06:00,35.5,29.9,30.16,ESE,112,8.1,8.1,80,0.00,CLR,,0.03,0.0,WeatherDisplay:10.37,2013-03-26 19:06:00,
2013-03-26 19:11:00,35.3,30.1,30.16,ESE,110,16.1,16.1,81,0.00,CLR,,0.03,0.0,WeatherDisplay:10.37,2013-03-26 19:11:00,
2013-03-26 19:16:00,35.2,30.0,30.16,East,95,6.9,6.9,81,0.00,CLR,,0.03,0.0,WeatherDisplay:10.37,2013-03-26 19:16:00,
2013-03-26 19:21:00,34.9,29.7,30.16,ESE,114,9.2,9.2,81,0.00,CLR,,0.03,0.0,WeatherDisplay:10.37,2013-03-26 19:21:00,
2013-03-26 19:27:00,34.7,29.5,30.16,ENE,64,8.1,8.1,81,0.00,CLR,,0.03,0.0,WeatherDisplay:10.37,2013-03-26 19:27:00,
2013-03-26 19:32:00,34.6,29.4,30.16,East,86,5.8,5.8,81,0.00,CLR,,0.03,0.0,WeatherDisplay:10.37,2013-03-26 19:32:00,
2013-03-26 19:37:00,34.3,29.1,30.17,ENE,72,5.8,5.8,81,0.00,CLR,,0.03,0.0,WeatherDisplay:10.37,2013-03-26 19:37:00,
2013-03-26 19:42:00,34.1,28.9,30.17,East,80,3.5,3.5,81,0.00,CLR,,0.03,0.0,WeatherDisplay:10.37,2013-03-26 19:42:00,
2013-03-26 19:47:00,34.0,29.1,30.17,ESE,104,4.6,4.6,82,0.00,CLR,,0.03,0.0,WeatherDisplay:10.37,2013-03-26 19:47:00,
2013-03-26 19:53:00,34.0,29.1,30.17,East,97,2.3,2.3,82,0.00,CLR,,0.03,0.0,WeatherDisplay:10.37,2013-03-26 19:53:00,
2013-03-26 19:58:00,33.8,28.9,30.17,East,97,3.5,3.5,82,0.00,CLR,,0.03,0.0,WeatherDisplay:10.37,2013-03-26 19:58:00,
2013-03-26 20:03:00,33.8,28.9,30.17,ESE,104,4.6,4.6,82,0.00,CLR,,0.03,0.0,WeatherDisplay:10.37,2013-03-26 20:03:00,
2013-03-26 20:08:00,34.0,29.4,30.17,ESE,103,2.3,2.3,83,0.00,CLR,,0.03,0.0,WeatherDisplay:10.37,2013-03-26 20:08:00,
2013-03-26 20:13:00,34.0,29.4,30.17,ESE,103,5.0,5.0,83,0.00,CLR,,0.03,0.0,WeatherDisplay:10.37,2013-03-26 20:13:00,
2013-03-26 20:18:00,33.8,29.2,30.17,East,86,3.5,3.5,83,0.00,CLR,,0.03,0.0,WeatherDisplay:10.37,2013-03-26 20:18:00,
2013-03-26 20:23:00,33.7,29.1,30.17,ENE,73,3.5,3.5,83,0.00,CLR,,0.03,0.0,WeatherDisplay:10.37,2013-03-26 20:23:00,
2013-03-26 20:29:00,33.5,28.9,30.17,ENE,72,1.2,1.2,83,0.00,CLR,,0.03,0.0,WeatherDisplay:10.37,2013-03-26 20:29:00,
2013-03-26 20:34:00,33.4,28.8,30.17,ENE,75,2.3,2.3,83,0.00,CLR,,0.03,0.0,WeatherDisplay:10.37,2013-03-26 20:34:00,
2013-03-26 20:39:00,33.2,28.6,30.17,ENE,73,2.3,2.3,83,0.00,CLR,,0.03,0.0,WeatherDisplay:10.37,2013-03-26 20:39:00,
2013-03-26 20:44:00,33.1,28.5,30.17,ENE,75,2.3,2.3,83,0.00,CLR,,0.03,0.0,WeatherDisplay:10.37,2013-03-26 20:44:00,
2013-03-26 20:49:00,32.9,28.3,30.17,ENE,75,1.2,1.2,83,0.00,CLR,,0.03,0.0,WeatherDisplay:10.37,2013-03-26 20:49:00,
2013-03-26 20:55:00,32.7,28.1,30.17,ENE,75,0.0,0.0,83,0.00,CLR,,0.03,0.0,WeatherDisplay:10.37,2013-03-26 20:55:00,
2013-03-26 21:00:00,32.5,27.9,30.17,ENE,75,1.2,1.2,83,0.00,CLR,,0.03,0.0,WeatherDisplay:10.37,2013-03-26 21:00:00,
2013-03-26 21:05:00,32.2,27.6,30.17,ENE,75,0.0,0.0,83,0.00,CLR,,0.03,0.0,WeatherDisplay:10.37,2013-03-26 21:05:00,
2013-03-26 21:10:00,32.1,27.5,30.17,ENE,75,2.3,2.3,83,0.00,CLR,,0.03,0.0,WeatherDisplay:10.37,2013-03-26 21:10:00,
2013-03-26 21:15:00,31.9,27.3,30.17,ENE,75,0.0,0.0,83,0.00,CLR,,0.03,0.0,WeatherDisplay:10.37,2013-03-26 21:15:00,
2013-03-26 21:20:00,31.6,27.0,30.17,ENE,71,3.5,3.5,83,0.00,CLR,,0.03,0.0,WeatherDisplay:10.37,2013-03-26 21:20:00,
2013-03-26 21:25:00,31.5,27.2,30.17,ENE,71,3.5,3.5,84,0.00,CLR,,0.03,0.0,WeatherDisplay:10.37,2013-03-26 21:25:00,
2013-03-26 21:30:00,31.3,27.0,30.17,ENE,71,0.0,0.0,84,0.00,CLR,,0.03,0.0,WeatherDisplay:10.37,2013-03-26 21:30:00,
2013-03-26 21:35:00,31.2,26.9,30.17,ENE,71,2.3,2.3,84,0.00,CLR,,0.03,0.0,WeatherDisplay:10.37,2013-03-26 21:35:00,
2013-03-26 21:40:00,31.2,26.9,30.17,ENE,72,2.3,2.3,84,0.00,CLR,,0.03,0.0,WeatherDisplay:10.37,2013-03-26 21:40:00,
2013-03-26 21:46:00,31.0,27.0,30.17,ENE,71,2.3,2.3,85,0.00,CLR,,0.03,0.0,WeatherDisplay:10.37,2013-03-26 21:46:00,
2013-03-26 21:51:00,31.2,27.2,30.17,ENE,61,2.3,2.3,85,0.00,CLR,,0.03,0.0,WeatherDisplay:10.37,2013-03-26 21:51:00,
2013-03-26 21:56:00,31.3,27.6,30.17,NE,56,3.5,3.5,86,0.00,CLR,,0.03,0.0,WeatherDisplay:10.37,2013-03-26 21:56:00,
2013-03-26 22:01:00,31.2,27.5,30.16,NE,55,2.3,2.3,86,0.00,CLR,,0.03,0.0,WeatherDisplay:10.37,2013-03-26 22:01:00,
2013-03-26 22:07:00,31.2,27.5,30.16,NE,55,0.0,0.0,86,0.00,CLR,,0.03,0.0,WeatherDisplay:10.37,2013-03-26 22:07:00,
2013-03-26 22:12:00,31.0,27.6,30.16,NE,55,1.2,1.2,87,0.00,CLR,,0.03,0.0,WeatherDisplay:10.37,2013-03-26 22:12:00,
2013-03-26 22:17:00,31.0,27.6,30.16,NE,55,0.0,0.2,87,0.00,CLR,,0.03,0.0,WeatherDisplay:10.37,2013-03-26 22:17:00,
2013-03-26 22:22:00,30.7,27.3,30.16,NE,55,0.0,0.0,87,0.00,CLR,,0.03,0.0,WeatherDisplay:10.37,2013-03-26 22:22:00,
2013-03-26 22:28:00,30.6,27.2,30.16,NE,55,0.0,0.0,87,0.00,CLR,,0.03,0.0,WeatherDisplay:10.37,2013-03-26 22:28:00,
2013-03-26 22:33:00,30.4,27.3,30.16,NE,55,0.0,0.0,88,0.00,CLR,,0.03,0.0,WeatherDisplay:10.37,2013-03-26 22:33:00,
2013-03-26 22:38:00,30.3,27.2,30.16,NE,55,0.0,0.0,88,0.00,CLR,,0.03,0.0,WeatherDisplay:10.37,2013-03-26 22:38:00,
2013-03-26 22:43:00,30.1,27.0,30.16,NE,55,0.0,0.0,88,0.00,CLR,,0.03,0.0,WeatherDisplay:10.37,2013-03-26 22:43:00,
2013-03-26 22:48:00,30.0,26.9,30.16,NE,55,0.0,0.0,88,0.00,CLR,,0.03,0.0,WeatherDisplay:10.37,2013-03-26 22:48:00,
2013-03-26 22:53:00,29.8,27.0,30.16,NE,55,0.0,0.0,89,0.00,CLR,,0.03,0.0,WeatherDisplay:10.37,2013-03-26 22:53:00,
2013-03-26 22:59:00,29.7,26.9,30.17,NE,55,0.0,0.0,89,0.00,CLR,,0.03,0.0,WeatherDisplay:10.37,2013-03-26 22:59:00,
2013-03-26 23:04:00,29.4,26.6,30.17,NE,55,0.0,0.0,89,0.00,CLR,,0.03,0.0,WeatherDisplay:10.37,2013-03-26 23:04:00,
2013-03-26 23:09:00,29.3,26.5,30.17,NE,55,0.0,0.0,89,0.00,CLR,,0.03,0.0,WeatherDisplay:10.37,2013-03-26 23:09:00,
2013-03-26 23:14:00,29.1,26.3,30.17,NE,55,0.0,0.0,89,0.00,CLR,,0.03,0.0,WeatherDisplay:10.37,2013-03-26 23:14:00,
2013-03-26 23:19:00,29.0,26.2,30.17,NE,55,0.0,0.0,89,0.00,CLR,,0.03,0.0,WeatherDisplay:10.37,2013-03-26 23:19:00,
2013-03-26 23:25:00,28.8,26.0,30.17,NE,55,0.0,0.0,89,0.00,CLR,,0.03,0.0,WeatherDisplay:10.37,2013-03-26 23:25:00,
2013-03-26 23:30:00,28.7,25.9,30.17,NE,55,0.0,0.0,89,0.00,CLR,,0.03,0.0,WeatherDisplay:10.37,2013-03-26 23:30:00,
2013-03-26 23:35:00,28.5,25.7,30.17,NE,55,0.0,0.0,89,0.00,CLR,,0.03,0.0,WeatherDisplay:10.37,2013-03-26 23:35:00,
2013-03-26 23:40:00,28.4,25.8,30.17,NE,55,0.0,0.0,90,0.00,CLR,,0.03,0.0,WeatherDisplay:10.37,2013-03-26 23:40:00,
2013-03-26 23:45:00,28.4,25.8,30.17,NE,55,0.0,0.0,90,0.00,CLR,,0.03,0.0,WeatherDisplay:10.37,2013-03-26 23:45:00,
2013-03-26 23:50:00,28.2,25.6,30.17,NE,55,0.0,0.0,90,0.00,CLR,,0.03,0.0,WeatherDisplay:10.37,2013-03-26 23:50:00,
2013-03-26 23:55:00,28.1,25.5,30.16,NE,55,0.0,0.0,90,0.00,CLR,,0.03,0.0,WeatherDisplay:10.37,2013-03-26 23:55:00,